Telluride, CO

1:14 PM MST on December 05, 2019 (GMT -0700)
Telluride Regional

Weather History for KTEX - October, 2019

Change the Weather History Date:

Saturday, October 19, 2019

  Actual Average Record
Temperature  
Mean Temperature 39 °F -  
Max Temperature 50 °F 47 °F 62 °F (2017)
Min Temperature 28 °F 30 °F 23 °F (2006)
Degree Days  
Heating Degree Days 26    
Moisture  
Dew Point 8 °F    
Average Humidity 33    
Maximum Humidity 64    
Minimum Humidity 15    
Precipitation  
Precipitation 0.00 in - - ()
Sea Level Pressure  
Sea Level Pressure 30.06 in    
Wind  
Wind Speed 7 mph (South)    
Max Wind Speed 21 mph    
Max Gust Speed 32 mph    
Visibility 10 miles    
Events      
Averages and records for this station are not official NWS values.
T = Trace of Precipitation, MM = Missing Value Source: NWS Daily Summary

Daily Weather History Graph

Daily Weather History Graph

Search for Another Location

Airport or City:

Astronomy

Oct. 19, 2019 Rise Set
Actual Time 7:23 AM MDT 6:28 PM MDT
Civil Twilight 6:57 AM MDT 6:55 PM MDT
Nautical Twilight 6:26 AM MDT 7:25 PM MDT
Astronomical Twilight 5:56 AM MDT 7:56 PM MDT
Moon 10:44 PM MDT (10/19) 12:55 PM MDT (10/19)
Length of Visible Light 11h 58m
Length of Day
11h 04m
Waning Gibbous, 69% of the Moon is Illuminated
Oct 19
Waning Gibbous
Oct 21
Last Quarter
Oct 27
New
Nov 4
First Quarter
Nov 12
Full

Hourly Weather History & Observations

Time (MDT) Temp. Windchill Dew Point Humidity Pressure Visibility Wind Dir Wind Speed Gust Speed Precip Events Conditions
12:15 AM 32.0 °F 26.4 °F 17.6 °F 55% 30.13 in 10.0 mi ESE 5.8 mph - N/A   Clear
12:35 AM 30.2 °F 23.4 °F 17.6 °F 60% 30.14 in 10.0 mi SE 6.9 mph - N/A   Clear
12:55 AM 30.2 °F 25.4 °F 17.6 °F 60% 30.14 in 10.0 mi SE 4.6 mph - N/A   Clear
1:15 AM 30.2 °F 25.4 °F 17.6 °F 60% 30.13 in 10.0 mi ESE 4.6 mph - N/A   Clear
1:35 AM 30.2 °F 24.3 °F 17.6 °F 60% 30.13 in 10.0 mi SE 5.8 mph - N/A   Clear
1:55 AM 30.2 °F 25.4 °F 17.6 °F 60% 30.13 in 10.0 mi SE 4.6 mph - N/A   Clear
2:15 AM 30.2 °F 26.7 °F 17.6 °F 60% 30.13 in 10.0 mi SE 3.5 mph - N/A   Clear
2:35 AM 30.2 °F 24.3 °F 17.6 °F 60% 30.12 in 10.0 mi SSE 5.8 mph - N/A   Clear
2:55 AM 30.2 °F 24.3 °F 17.6 °F 60% 30.12 in 10.0 mi SE 5.8 mph - N/A   Clear
3:15 AM 28.4 °F 22.2 °F 17.6 °F 64% 30.12 in 10.0 mi SE 5.8 mph - N/A   Clear
3:35 AM 30.2 °F 24.3 °F 17.6 °F 60% 30.12 in 10.0 mi SE 5.8 mph - N/A   Clear
3:55 AM 28.4 °F 22.2 °F 17.6 °F 64% 30.12 in 10.0 mi SE 5.8 mph - N/A   Clear
4:15 AM 28.4 °F 21.2 °F 15.8 °F 59% 30.12 in 10.0 mi SE 6.9 mph - N/A   Clear
4:35 AM 28.4 °F 22.2 °F 15.8 °F 59% 30.12 in 10.0 mi ESE 5.8 mph - N/A   Clear
4:55 AM 30.2 °F 25.4 °F 14.0 °F 51% 30.12 in 10.0 mi SE 4.6 mph - N/A   Clear
5:15 AM 28.4 °F 22.2 °F 15.8 °F 59% 30.12 in 10.0 mi ESE 5.8 mph - N/A   Clear
5:35 AM 28.4 °F 21.2 °F 14.0 °F 55% 30.12 in 10.0 mi SE 6.9 mph - N/A   Clear
5:55 AM 28.4 °F 21.2 °F 14.0 °F 55% 30.12 in 10.0 mi SSE 6.9 mph - N/A   Clear
6:15 AM 28.4 °F 21.2 °F 14.0 °F 55% 30.12 in 10.0 mi SE 6.9 mph - N/A   Clear
6:35 AM 28.4 °F 22.2 °F 14.0 °F 55% 30.12 in 10.0 mi ESE 5.8 mph - N/A   Clear
6:55 AM 28.4 °F 22.2 °F 12.2 °F 51% 30.12 in 10.0 mi SE 5.8 mph - N/A   Clear
7:15 AM 28.4 °F 23.3 °F 12.2 °F 51% 30.12 in 10.0 mi ESE 4.6 mph - N/A   Clear
7:35 AM 30.2 °F 26.7 °F 10.4 °F 44% 30.12 in 10.0 mi SE 3.5 mph - N/A   Clear
7:55 AM 28.4 °F 22.2 °F 12.2 °F 51% 30.12 in 10.0 mi SSE 5.8 mph - N/A   Clear
8:15 AM 28.4 °F 22.2 °F 12.2 °F 51% 30.13 in 10.0 mi SE 5.8 mph - N/A   Clear
8:35 AM 30.2 °F 24.3 °F 10.4 °F 44% 30.14 in 10.0 mi SE 5.8 mph - N/A   Clear
8:55 AM 32.0 °F 28.7 °F 10.4 °F 41% 30.14 in 10.0 mi ESE 3.5 mph - N/A   Clear
9:15 AM 33.8 °F 30.8 °F 8.6 °F 35% 30.14 in 10.0 mi ESE 3.5 mph - N/A   Clear
9:35 AM 35.6 °F - 8.6 °F 33% 30.14 in 10.0 mi Calm Calm - N/A   Clear
9:55 AM 37.4 °F 33.8 °F 6.8 °F 28% 30.14 in 10.0 mi ESE 4.6 mph - N/A   Clear
10:15 AM 39.2 °F - 6.8 °F 26% 30.14 in 10.0 mi Calm Calm - N/A   Clear
10:35 AM 41.0 °F - 3.2 °F 21% 30.14 in 10.0 mi Calm Calm - N/A   Clear
10:55 AM 44.6 °F 43.1 °F 5.0 °F 20% 30.14 in 10.0 mi WNW 3.5 mph - N/A   Clear
11:15 AM 44.6 °F 41.4 °F 3.2 °F 18% 30.12 in 10.0 mi West 5.8 mph - N/A   Clear
11:35 AM 44.6 °F 42.2 °F 3.2 °F 18% 30.12 in 10.0 mi West 4.6 mph - N/A   Clear
11:55 AM 46.4 °F 41.9 °F 3.2 °F 17% 30.11 in 10.0 mi West 9.2 mph - N/A   Clear
12:15 PM 46.4 °F - 3.2 °F 17% 30.10 in 10.0 mi Calm Calm - N/A   Clear
12:35 PM 46.4 °F - 3.2 °F 17% 30.09 in 10.0 mi Calm Calm - N/A   Clear
12:55 PM 46.4 °F 43.5 °F 1.4 °F 16% 30.09 in 10.0 mi NNW 5.8 mph - N/A   Clear
1:15 PM 48.2 °F - 1.4 °F 15% 30.07 in 10.0 mi WSW 8.1 mph - N/A   Clear
1:35 PM 50.0 °F - 3.2 °F 15% 30.05 in 10.0 mi WNW 10.4 mph 18.4 mph N/A   Clear
1:55 PM 50.0 °F - 3.2 °F 15% 30.04 in 10.0 mi West 11.5 mph 16.1 mph N/A   Clear
2:15 PM 50.0 °F - 3.2 °F 15% 30.03 in 10.0 mi SSW 8.1 mph 20.7 mph N/A   Clear
2:35 PM 50.0 °F - 3.2 °F 15% 30.02 in 10.0 mi SW 13.8 mph 20.7 mph N/A   Clear
2:55 PM 50.0 °F - 3.2 °F 15% 30.01 in 10.0 mi SW 11.5 mph 26.5 mph N/A   Clear
3:15 PM 50.0 °F - 3.2 °F 15% 30.01 in 10.0 mi SW 12.7 mph 26.5 mph N/A   Clear
3:35 PM 50.0 °F - 3.2 °F 15% 30.01 in 10.0 mi WSW 19.6 mph 29.9 mph N/A   Clear
3:55 PM 50.0 °F - 3.2 °F 15% 30.01 in 10.0 mi WSW 16.1 mph 23.0 mph N/A   Clear
4:15 PM 50.0 °F - 3.2 °F 15% 30.01 in 10.0 mi WSW 16.1 mph 28.8 mph N/A   Clear
4:35 PM 46.4 °F 39.8 °F 3.2 °F 17% 30.01 in 10.0 mi SW 16.1 mph 32.2 mph N/A   Clear
4:55 PM 46.4 °F 41.5 °F 5.0 °F 18% 30.01 in 10.0 mi SW 10.4 mph 18.4 mph N/A   Clear
5:15 PM 46.4 °F 41.9 °F 3.2 °F 17% 29.99 in 10.0 mi SW 9.2 mph 23.0 mph N/A   Clear
5:35 PM 46.4 °F - 1.4 °F 16% 29.99 in 10.0 mi Calm Calm - N/A   Clear
5:55 PM 46.4 °F 43.5 °F 1.4 °F 16% 29.99 in 10.0 mi West 5.8 mph 21.9 mph N/A   Clear
6:15 PM 44.6 °F 41.4 °F 1.4 °F 17% 29.97 in 10.0 mi WSW 5.8 mph 20.7 mph N/A   Clear
6:35 PM 44.6 °F - 5.0 °F 20% 29.97 in 10.0 mi Calm Calm - N/A   Clear
6:55 PM 42.8 °F 40.1 °F 5.0 °F 21% 29.97 in 10.0 mi South 4.6 mph - N/A   Clear
7:15 PM 42.8 °F 38.0 °F 8.6 °F 25% 29.98 in 10.0 mi South 8.1 mph - N/A   Scattered Clouds
7:35 PM 42.8 °F - 8.6 °F 25% 29.98 in 10.0 mi Calm Calm - N/A   Scattered Clouds
7:55 PM 42.8 °F 36.6 °F 8.6 °F 25% 29.97 in 10.0 mi SW 11.5 mph 16.1 mph N/A   Clear
8:15 PM 44.6 °F 39.7 °F 5.0 °F 20% 29.97 in 10.0 mi SSW 9.2 mph 27.6 mph N/A   Clear
8:35 PM 44.6 °F 38.1 °F 5.0 °F 20% 29.95 in 10.0 mi SSW 13.8 mph 21.9 mph N/A   Clear
8:55 PM 44.6 °F 39.2 °F 6.8 °F 21% 29.95 in 10.0 mi SW 10.4 mph 18.4 mph N/A   Clear
9:15 PM 44.6 °F 38.8 °F 5.0 °F 20% 29.95 in 10.0 mi SW 11.5 mph 24.2 mph N/A   Scattered Clouds
9:35 PM 44.6 °F 36.9 °F 5.0 °F 20% 29.95 in 10.0 mi SW 18.4 mph 28.8 mph N/A   Overcast
9:55 PM 44.6 °F 36.4 °F 5.0 °F 20% 29.93 in 10.0 mi SW 20.7 mph 31.1 mph N/A   Overcast
10:15 PM 44.6 °F 37.2 °F 5.0 °F 20% 29.94 in 10.0 mi SSW 17.3 mph 28.8 mph N/A   Overcast
10:35 PM 44.6 °F 38.4 °F 5.0 °F 20% 29.93 in 10.0 mi SSW 12.7 mph 23.0 mph N/A   Overcast
10:55 PM 44.6 °F 38.4 °F 5.0 °F 20% 29.93 in 10.0 mi WSW 12.7 mph 23.0 mph N/A   Overcast
11:15 PM 44.6 °F 38.1 °F 5.0 °F 20% 29.93 in 10.0 mi SW 13.8 mph 24.2 mph N/A   Overcast
11:35 PM 44.6 °F 37.8 °F 5.0 °F 20% 29.93 in 10.0 mi SW 15.0 mph 29.9 mph N/A   Overcast
11:55 PM 44.6 °F 38.1 °F 5.0 °F 20% 29.92 in 10.0 mi SW 13.8 mph 31.1 mph N/A   Overcast